sat.trackr.live / text

‹ back to catalog

STARLINK-36770

NORAD 67870 · 2026-034W

PAYLOAD ACTIVE UNKNOWN

§ Identity

Operator
Country
US
Launch date
2026-02-20
Launch site
AFETR
Launch vehicle
Mass (kg)
RCS (m²)

Purposes: comms

External: N2YO · Heavens-Above · Gunter

§ Orbital elements

Epoch: 2026-09-19T21:39:08.139456Z

Period
93.85 min
Inclination
53.1586°
Eccentricity
0.0001288
Mean motion
15.34421092 rev/d
Perigee alt
461.8 km
Apogee alt
463.5 km
Semi-major
6,840.8 km
B*
8.0691e-4
RAAN
20.5078°
Arg perigee
90.6787°
Mean anomaly
269.4363°
Rev number
3,379

§ Raw data

STARLINK-367701 67870U 26034W   26262.90217754  .00027003  00000+0  80691-3 0  99942 67870  53.1586  20.5078 0001288  90.6787 269.4363 15.34421092 33792

JSON: /api/v1/satellites/67870 · /tle

For live sub-satellite position, see the globe view (requires WebGL).

§ Visibility from observer

Set your observer location to see the next 7 days of passes ≥ 10°. The values pass through the URL so the page stays shareable.

No JS? Fill the form by hand. The geolocation button needs JavaScript.